Location: Sobotiste
(48.7170°N, 17.4000°E)
Time: 02:29:03
(UTC+02:00)

METEOR M2 - Pass Details

Date: 23 March 2026
Orbit: 817 x 824 km, 98.5° (Epoch: 13 April)

Event Time Altitude Azimuth Distance (km) Brightness Sun altitude
Rises 04:33:24 0° 13° (NNE) 3,373 ? -12.8°
Reaches altitude 10° 04:35:46 10° 12° (NNE) 2,436 ? -12.5°
Maximum altitude 04:41:09 76° 287° (WNW) 854 ? -11.6°
Drops below altitude 10° 04:46:30 10° 203° (SSW) 2,416 ? -10.8°
Sets 04:48:50 0° 202° (SSW) 3,344 ? -10.4°
